Chillicothe, MO

10:17 AM CST on February 28, 2017 (GMT -0600)
Chillicothe

Weather History for KCDJ - January, 2013

Change the Weather History Date:

Saturday, January 5, 2013

  Actual Average (KIRK) Record (KIRK)
Temperature  
Mean Temperature 32 °F -  
Max Temperature 42 °F 33 °F 61 °F (2012)
Min Temperature 23 °F 14 °F -21 °F (1924)
Degree Days  
Heating Degree Days 32    
Moisture  
Dew Point 26 °F    
Average Humidity 75    
Maximum Humidity 85    
Minimum Humidity 65    
Precipitation  
Precipitation 0.00 in - - ()
Sea Level Pressure  
Sea Level Pressure 30.18 in    
Wind  
Wind Speed 7 mph (SSW)    
Max Wind Speed 14 mph    
Max Gust Speed 21 mph    
Averages and records for this station are not official NWS values.
T = Trace of Precipitation, MM = Missing Value Source: NWS Daily Summary

Daily Weather History Graph

Daily Weather History Graph

Search for Another Location

Airport or City:

Trip Planner

Search our weather history database for the weather conditions in past years. The results will help you decide how hot, cold, wet, or windy it might be!

Date:

Astronomy

Jan. 05, 2013 Rise Set
Actual Time 7:35 AM CST 5:04 PM CST
Civil Twilight 7:05 AM CST 5:34 PM CST
Nautical Twilight 6:32 AM CST 6:08 PM CST
Astronomical Twilight 5:59 AM CST 6:40 PM CST
Moon 12:43 AM CST (1/5) 11:54 AM CST (1/5)
Length of Visible Light 10h 28m
Length of Day
9h 28m
Last Quarter, 44% of the Moon is Illuminated
Jan 5
Last Quarter
Jan 11
New
Jan 18
First Quarter
Jan 26
Full
Feb 3
Last Quarter

Hourly Weather History & Observations

Time (CST) Temp. Windchill Dew Point Humidity Pressure Visibility Wind Dir Wind Speed Gust Speed Precip Events Conditions
12:52 AM 27.0 °F 23.0 °F 23.0 °F 85% 30.28 in - SSE 3.5 mph - N/A   Unknown
1:52 AM 26.1 °F 19.4 °F 21.0 °F 81% 30.27 in - South 5.8 mph - N/A   Unknown
2:52 AM 28.0 °F 21.7 °F 21.0 °F 75% 30.26 in - South 5.8 mph - N/A   Unknown
3:52 AM 25.0 °F 20.7 °F 19.9 °F 81% 30.25 in - SSW 3.5 mph - N/A   Unknown
4:52 AM 23.0 °F 15.8 °F 19.0 °F 85% 30.25 in - SSE 5.8 mph - N/A   Unknown
5:52 AM 24.1 °F 18.2 °F 19.9 °F 84% 30.25 in - SE 4.6 mph - N/A   Unknown
6:52 AM 28.9 °F 22.8 °F 23.0 °F 78% 30.26 in - South 5.8 mph - N/A   Unknown
7:52 AM 33.1 °F 24.4 °F 27.0 °F 78% 30.25 in - South 11.5 mph - N/A   Unknown
9:52 AM 36.0 °F 30.3 °F 30.0 °F 79% 30.24 in - South 6.9 mph - N/A   Unknown
10:52 AM 37.0 °F 28.9 °F 30.9 °F 79% 30.22 in - South 12.7 mph - N/A   Unknown
11:52 AM 37.0 °F 30.4 °F 32.0 °F 82% 30.18 in - SSW 9.2 mph - N/A   Unknown
12:52 PM 39.0 °F 32.3 °F 32.0 °F 76% 30.14 in - SSW 10.4 mph - N/A   Unknown
1:52 PM 39.9 °F 32.1 °F 33.1 °F 77% 30.09 in - SSW 13.8 mph 20.7 mph N/A   Unknown
2:52 PM 42.1 °F 35.2 °F 30.9 °F 65% 30.09 in - SSW 12.7 mph 19.6 mph N/A   Unknown
3:52 PM 41.0 °F 35.8 °F 30.0 °F 65% 30.10 in - SSW 8.1 mph - N/A   Unknown
4:52 PM 39.9 °F 33.9 °F 30.0 °F 68% 30.09 in - SSW 9.2 mph - N/A   Unknown
5:52 PM 39.0 °F 34.0 °F 30.0 °F 70% 30.11 in - SSW 6.9 mph - N/A   Unknown
6:52 PM 37.9 °F 32.7 °F 30.0 °F 73% 30.12 in - SW 6.9 mph - N/A   Unknown
7:52 PM 37.0 °F 33.3 °F 28.9 °F 73% 30.14 in - West 4.6 mph - N/A   Unknown
8:52 PM 35.1 °F 28.6 °F 26.1 °F 70% 30.15 in - WNW 8.1 mph - N/A   Unknown
9:52 PM 32.0 °F 27.5 °F 23.0 °F 69% 30.16 in - West 4.6 mph - N/A   Unknown
10:52 PM 30.9 °F 27.5 °F 21.9 °F 69% 30.17 in - West 3.5 mph - N/A   Unknown
11:52 PM 30.0 °F 23.2 °F 21.9 °F 72% 30.18 in - Variable 6.9 mph - N/A   Unknown